Hourly Data Report for July 13, 2016

OTTAWA INTL A
ONTARIO

45°19'00.000" N
75°40'00.000" W
114.90 m
6106001
71628
YOW

Download Data

Hourly Data (July 2016)
Hourly Data Report for July 13, 2016
TIME
LST
Temp Definition
°C
Dew Point Definition
°C
Rel Hum Definition
%
Precip. Amount Definition
mm

Wind Dir Definition
10's deg

Wind Spd Definition
km/h
Visibility Definition
km
Stn Press Definition
kPa
Hmdx Definition


Wind Chill Definition


Weather Definition


00:00 20.9 15.5 71   16 7 24.1 99.99 25   LegendNANA
01:00 20.9 15.5 71   17 8 24.1 99.95 25   Clear
02:00 19.6 15.7 78   12 7 24.1 99.93     LegendNANA
03:00 18.6 15.9 84   13 5 24.1 99.87     LegendNANA
04:00 19.3 16.6 84   16 8 24.1 99.89     Mainly Clear
05:00 19.8 17.1 84   16 4 24.1 99.88     LegendNANA
06:00 21.4 17.9 80   20 7 24.1 99.91 27   LegendNANA
07:00 23.6 19.0 75   20 14 24.1 99.90 30   Mostly Cloudy
08:00 25.6 20.3 72   17 14 24.1 99.86 33   LegendNANA
09:00 26.5 20.7 70   19 14 24.1 99.86 35   LegendNANA
10:00 28.9 22.3 67   18 13 24.1 99.82 39   Mostly Cloudy
11:00 30.8 22.3 60   20 21 24.1 99.76 40   LegendNANA
12:00 31.4 22.1 57   18 23 24.1 99.72 41   LegendNANA
13:00 30.8 22.1 59   21 23 24.1 99.71 40   Mostly Cloudy
14:00 32.4 22.4 55   19 23 24.1 99.63 42   LegendNANA
15:00 30.8 22.1 59   20 26 24.1 99.60 40   Thunderstorms
16:00 29.1 23.9 73   19 13 24.1 99.57 40   Mainly Clear
17:00 31.7 21.5 54   23 15 24.1 99.52 41   LegendNANA
18:00 31.3 21.1 54   22 17 24.1 99.48 40   LegendNANA
19:00 29.7 21.0 59   19 14 24.1 99.49 38   Mainly Clear
20:00 27.6 21.5 69   19 14 24.1 99.52 36   LegendNANA
21:00 26.8 21.2 71   19 18 24.1 99.53 35   LegendNANA
22:00 25.8 21.3 76   20 19 24.1 99.54 34   Clear
23:00 25.3 21.1 77   21 21 24.1 99.55 34   LegendNANA

Notes on Data Quality.

Legend

  • E = Estimated
  • M = Missing
  • NA = Not Available*
  • [empty] = Indicates an unobserved value
Date modified: